www.pogodaiklimat.ru

АРХИВ ПОГОДЫ в Лос-Анджелесе

Время (UTC), дата Ветер
(напр.,м/с)
 
Видим.   Явления Облачность Т
(С)
Тd
(С)
f
(%)
Тe
(С)
Тes
(С)
Комфортность

P
(гПа)

Po
(гПа)
Тmin
(С)
Tmax
(С)
R
(мм)
SD
(см)
07:53 23.04 штиль  10 км  дымка  8/8 60 м  +14.0  +13.0  94  +14  +14    1014.2  1009.9         
08:53 23.04 штиль  4 км  дымка  10/10 60 м  +14.4  +13.3  93  +14  +14    1014.3  1009.9         
09:53 23.04 штиль  800 м  дымка  10/10 60 м  +14.4  +13.3  93  +14  +14    1014.4  1009.9         
10:53 23.04 штиль  4 км  дымка  10/10 60 м  +13.9  +13.3  96  +13  +13    1014.8  1010.6  +13.9  +15.0     
11:38 23.04 Ю  2 км  дымка  10/10 150 м  +14.4  +12.8  90  +14  +14      1010.6         
11:53 23.04 штиль  2 км  дымка  10/10 60 м  +13.9  +12.8  93  +13  +13    1015.2  1010.9         
12:53 23.04 штиль  2 км  дымка  10/10 60 м  +13.9  +12.8  93  +13  +13    1015.9  1011.6         
13:53 23.04 СВ  2 км  дымка  10/10 60 м  +14.4  +12.8  90  +13  +13    1016.4  1011.9         
14:47 23.04 С  3 км  дымка  10/10 150 м  +16.1  +12.8  81  +16  +16      1012.2         
14:53 23.04 штиль  3 км  дымка  10/10 150 м  +15.6  +12.8  83  +15  +15    1016.7  1012.2         
15:29 23.04 штиль  5 км  дымка  8/8 180 м  +16.1  +12.8  81  +16  +18      1012.2         
15:53 23.04 штиль  5 км  дымка  5/5 0 м  +18.3  +12.8  70  +19  +23    1016.9  1012.2         
16:53 23.04 З   10 км  мгла  5/5 240 м  +19.0  +13.0  68  +20  +24    1017.1  1012.6  +13.9       
17:53 23.04 З  10 км  мгла  2/2 360 м  +18.9  +12.8  68  +20  +27    1016.7  1012.2         
18:53 23.04 З  11 км    2/2 360 м  +18.9  +12.8  68  +20  +27    1015.9  1011.2         
19:53 23.04 З   13 км    5/5 300 м  +19.0  +13.0  68  +20  +23    1015.4  1010.9         
20:53 23.04 З  16 км    2/2 360 м
[средняя] 
+17.8  +12.2  70  +17  +20    1015.2  1010.6         
21:24 23.04 З  16 км    5/2 240 м
[верхняя] 
+16.7  +12.2  75  +16  +19      1010.6         
21:53 23.04 З  16 км    8/8 240 м
[верхняя] 
+16.7  +12.8  78  +16  +16    1015.0  1010.6         
22:53 23.04 З  13 км    10/10 210 м  +15.6  +11.7  78  +14  +14    1015.0  1010.6    +19.4     
23:53 23.04 З  16 км    10/10 240 м  +14.4  +11.1  81  +12  +12    1015.0  1010.6         
00:53 24.04 З  16 км    10/10 210 м  +13.3  +11.1  87  +11  +11    1015.0  1010.6         
01:53 24.04 ЮЗ  16 км    10/10 180 м  +12.8  +11.1  89  +11  +11    1015.3  1010.9         
02:53 24.04 ЮЗ  13 км    10/10 180 м  +12.8  +11.1  89  +11  +11    1015.9  1011.2         
03:53 24.04 Ю  11 км    10/10 240 м  +13.0  +11.0  88  +12  +12    1016.2  1011.9         
04:53 24.04 З  4 км  дымка  10/10 90 м  +13.0  +11.0  88  +12  +12    1016.4  1011.9  +12.8  +15.6     
04:59 24.04 нст  2 км  дымка  ?/?  +13.0  +12.0  94  +12  +12      1011.9         
05:06 24.04 ЮЗ  1 км  дымка  ?/?  +12.8  +11.7  93  +12  +12      1011.9         
05:48 24.04 З  4 км  дымка  10/10 90 м  +13.0  +12.0  94  +12  +12      1011.9         
05:53 24.04 З  4 км  дымка  10/10 90 м  +13.0  +12.0  94  +12  +12    1016.3  1011.9         
06:53 24.04 ЮЗ  4 км  дымка  10/10 90 м  +13.0  +12.0  94  +12  +12    1016.4  1011.9         
07:16 24.04 штиль  5 км  дымка  10/10 90 м  +13.3  +11.1  87  +13  +13      1011.9         
07:53 24.04 Ю  5 км  дымка  10/10 90 м  +13.0  +12.0  94  +12  +12    1015.7  1011.2         
08:50 24.04 штиль  5 км  дымка  5/5 90 м  +13.0  +11.0  88  +12  +12      1011.2         
08:53 24.04 штиль  5 км  дымка  5/5 90 м  +12.2  +10.6  90  +12  +12    1015.6  1011.2         
09:53 24.04 штиль  5 км  дымка  5/5 60 м  +12.2  +10.6  90  +12  +12    1015.1  1010.6         
10:53 24.04 Ю  5 км  дымка  5/5 60 м  +13.0  +11.0  88  +12  +12    1015.4  1010.9  +11.7       
11:40 24.04 нст  3 км  дымка  10/10 90 м  +12.8  +11.1  89  +12  +12      1011.2         
11:53 24.04 Ю  3 км  дымка  10/10 90 м  +12.8  +11.1  89  +11  +11    1015.9  1011.6         
12:53 24.04 штиль  3 км  дымка  10/10 120 м  +12.8  +11.7  93  +12  +12    1016.5  1011.9         
13:53 24.04 В  3 км  дымка  10/10 150 м  +13.0  +11.0  88  +13  +13    1016.7  1012.2         
14:53 24.04 СВ  3 км  дымка  10/10 150 м  +14.4  +10.6  78  +13  +13    1016.5  1011.9         
15:11 24.04 штиль  4 км  дымка  8/8 150 м  +14.0  +11.0  82  +14  +15      1011.9         
15:27 24.04 штиль  5 км  дымка  8/8 0 м  +15.0  +11.0  77  +15  +17      1011.9         
15:53 24.04 штиль  6 км  мгла  8/5 180 м
[средняя] 
+16.0  +11.0  72  +16  +19    1016.9  1012.2         
16:53 24.04 ЮЗ  6 км  мгла  8/5 270 м
[средняя] 
+17.0  +11.0  68  +16  +17    1017.5  1012.9  +12.2  +17.8     
17:53 24.04 З  8 км  мгла  8/5 270 м
[средняя] 
+17.0  +11.0  68  +16  +19    1017.4  1012.9         
18:53 24.04 З  11 км    8/5 300 м
[средняя] 
+16.0  +11.0  72  +15  +18    1017.1  1012.6         

 

Местоположение метеостанции Los Angeles International Airport: широта 33.9381 долгота -118.3889 высота над уровнем моря 38 м.

В архиве по умолчанию представлена погода в Лос-Анджелесе за последние 1-2 суток. Обновление информации о фактической погоде в базе происходит ежечасно! Архивные данные за месяц целиком и за предыдущие месяцы Вы можете получить, выбрав интересующий диапазон дат из раскрывающегося списка и нажав кнопку "Ввод!".

Внимание! Архив погоды МЕТАР в базе сайта в настоящее время начинается c 1 января 2013 г. Нет смысла пытаться выбрать более раннюю дату.

Внимание! Время в таблицах - всемирное. Для получения местного времени необходимо прибавить поправку, которая в Лос-Анджелесе равна -8 ч.

Ветер - указаны скорость ветра в м/с и направление, откуда дует ветер: С - северный, СВ - северо-восточный, В - восточный, ЮВ - юго-восточный, Ю - южный, ЮЗ - юго-западный, З - западный, СЗ - северо-западный.
Видимость - горизонтальная дальность видимости в метрах или километрах. При видимости от 1 до 10 км при отсутствии осадков обычно наблюдается дымка, при ухудшении видимости до 1 км и менее - туман. В сухую погоду видимость может ухудшаться дымом, пылью или мглою.
Атмосферные явления - указаны явления, наблюдавшиеся в указанный момент времени.
Облачность - указаны через наклонную черту верхняя и нижняя облачность в баллах и высота нижней границы облаков в метрах. Внимание: облачность, как и прочие метеорологические величины в США измеряются автоматическими метеостанциями. Указанные значения в баллах носят условный характер и показывают процент времени, в течение которого, в среднем, лазерный луч высотомера отражался от облаков обратно.
T - Температура воздуха - температура, измеренная на высоте 2 м над землей.
Td - Температура точки росы - температура, при понижении до которой содержащийся в воздухе водяной пар достигнет насыщения.
f - Относительная влажность воздуха - влажноcть воздуха, измеренная на высоте 2 м над землей.
Te - Эффективная температура - температура, которую ощущает одетый по сезону человек в тени. Характеристика душности погоды. При расчете учитывается влияние влажности воздуха и скорости ветра на теплоощущения человека.
Tes - Эффективная температура на солнце - температура, которую ощущает человек, с поправкой на солнечный нагрев. Характеристика знойности погоды. Зависит от высоты солнца над горизонтом, облачности и скорости ветра. Ночью, в пасмурную погоду, а также при ветре 12 м/с и более поправка равна нулю.
P - Атмосферное давление - приведенное к уровню моря атмосферное давление.
Po - Атмосферное давление - измеренное на уровне метеостанции атмосферное давление.
Tmin - Минимальная температура - минимум температуры воздуха на высоте 2 м над землей.
Tmax - Максимальная температура - максимум температуры воздуха на высоте 2 м над землей.
R - Количество осадков - Количество выпавших осадков за 3 или 6 часов, мм.
SD - Снежный покров - Высота снежного покрова, см.